Aeroporto :
LOGIN :

Iscrizione | Disclaimer

   EN    FR    IT 

 










Sommario :    VFR   VFR Marginale   IFR   IFR Intensivo   IFR Molto Intensivo
Visibilità : 
Base nubi : 
>= 8 km
>= 3000ft
5 / 8 km
1000 / 3000 ft
1500m / 5 km
500 / 1000 ft
800 / 1500m
200 / 500 ft
< 800m
< 200 ft
Simboli :   Temporali  Nebbia  Neve Forte  Precipitazioni Forti  Vento > 20 kt
SIGMETs :   Varie  Temporali  Ghiacco  Turbolenza  Onda orograficha  Ceneri Vulcaniche






- Altitudine del aeroporto : 1947 ft
- Codice IATA : OBF


EDMO - Oberpfaffenhofen

ULTIMO METAR :
  • 240550Z 33005KT 7000 -RA FEW006 BKN010 OVC023 03/02 Q1025

METARs OBSOLETI :
  • 240520Z AUTO 30006KT 6000 // BKN007/// BKN009/// OVC012/// 03/02 Q1025
  • 240450Z AUTO 33005KT 7000 // FEW007/// BKN010/// OVC015/// 03/02 Q1025
  • 240420Z AUTO 34008G18KT 310V050 8000 // OVC006/// 03/02 Q1025
  • 240350Z AUTO 36009KT 9999 // OVC006/// 04/03 Q1024
  • 240320Z AUTO 35012KT 6000 // BKN005/// OVC012/// 04/03 Q1024

Previsioni scadute.



MetMap, La meteo Aeronautica in un colpo d'occhio ! - Copyright ORBIFLY Dicembre 2007 - Disclaimer

ORBIFLY MET'MAP TEAM :

Programmazione e sviluppo : Alexandra Zaïnal
Concezione : Baudouin d'Aumeries
Aiuto per la programmazione : Marc-Olivier Méhu
Supporto tecnico e logistico : Manuel Goepfert
Aiuto per la traduzione : Arnaldo La Scala

Contatto : metmap@orbifly.com




FONTI E CREDITI :

   NOAA